TimeCST,TemperatureF,Dew PointF,Humidity,Sea Level PressureIn,VisibilityMPH,Wind Direction,Wind SpeedMPH,Gust SpeedMPH,PrecipitationIn,Events,Conditions,WindDirDegrees,DateUTC
12:15 AM,3.2,-2.2,78,30.34,2.0,North,18.4,27.6,N/A,Rain,Freezing Rain,360,2014-02-05 06:15:00
12:35 AM,3.2,-4.0,72,30.34,2.0,North,20.7,33.4,N/A,Rain,Freezing Rain,360,2014-02-05 06:35:00
12:55 AM,3.2,-2.2,78,30.33,1.8,North,20.7,31.1,N/A,Rain,Freezing Rain,360,2014-02-05 06:55:00
1:15 AM,3.2,-2.2,78,30.34,1.8,North,19.6,33.4,N/A,Rain,Freezing Rain,360,2014-02-05 07:15:00
1:35 AM,3.2,-4.0,72,30.34,1.5,North,25.3,-,N/A,Rain,Freezing Rain,350,2014-02-05 07:35:00
1:55 AM,3.2,-4.0,72,30.34,1.8,North,23.0,31.1,N/A,Rain,Freezing Rain,360,2014-02-05 07:55:00
2:15 AM,3.2,-4.0,72,30.34,2.0,North,25.3,32.2,N/A,Rain,Freezing Rain,350,2014-02-05 08:15:00
2:35 AM,3.2,-4.0,72,30.34,2.0,North,26.5,-,N/A,Rain,Freezing Rain,360,2014-02-05 08:35:00
2:55 AM,1.4,-4.0,78,30.35,1.8,North,19.6,33.4,N/A,Rain,Freezing Rain,350,2014-02-05 08:55:00
3:15 AM,1.4,-5.8,72,30.35,2.5,North,21.9,34.5,N/A,Rain,Freezing Rain,350,2014-02-05 09:15:00
3:35 AM,1.4,-4.0,78,30.35,3.0,North,24.2,32.2,N/A,Rain,Freezing Rain,350,2014-02-05 09:35:00
3:55 AM,1.4,-5.8,72,30.36,2.5,North,24.2,32.2,N/A,Rain,Freezing Rain,350,2014-02-05 09:55:00
4:15 AM,1.4,-5.8,72,30.37,3.0,North,18.4,28.8,N/A,Rain,Freezing Rain,350,2014-02-05 10:15:00
4:35 AM,1.4,-5.8,72,30.38,2.5,North,19.6,32.2,N/A,Rain,Freezing Rain,350,2014-02-05 10:35:00
4:55 AM,1.4,-5.8,72,30.38,1.5,North,21.9,29.9,N/A,Rain,Freezing Rain,350,2014-02-05 10:55:00
5:15 AM,-0.4,-5.8,78,30.39,2.0,NNW,21.9,28.8,N/A,Rain,Freezing Rain,340,2014-02-05 11:15:00
5:35 AM,-0.4,-7.6,72,30.40,3.0,North,20.7,33.4,N/A,Rain,Freezing Rain,350,2014-02-05 11:35:00
5:55 AM,-0.4,-7.6,72,30.41,4.0,North,19.6,26.5,N/A,,Haze,350,2014-02-05 11:55:00
6:15 AM,-0.4,-7.6,72,30.41,5.0,NNW,19.6,29.9,N/A,,Haze,340,2014-02-05 12:15:00
6:35 AM,-0.4,-7.6,72,30.42,5.0,North,19.6,29.9,N/A,,Haze,350,2014-02-05 12:35:00
6:55 AM,-0.4,-7.6,72,30.42,4.0,North,16.1,29.9,N/A,,Haze,350,2014-02-05 12:55:00
7:15 AM,-0.4,-7.6,72,30.43,2.0,NNW,19.6,28.8,N/A,Rain,Freezing Rain,340,2014-02-05 13:15:00
7:35 AM,-0.4,-7.6,72,30.44,2.0,NNW,19.6,26.5,N/A,Rain,Freezing Rain,340,2014-02-05 13:35:00
7:55 AM,-0.4,-7.6,72,30.45,4.0,NNW,20.7,26.5,N/A,,Haze,340,2014-02-05 13:55:00
8:15 AM,-0.4,-7.6,72,30.46,3.0,NNW,19.6,27.6,N/A,Snow,Light Snow,340,2014-02-05 14:15:00
8:35 AM,-0.4,-7.6,72,30.47,4.0,NNW,21.9,-,N/A,,Haze,340,2014-02-05 14:35:00
8:55 AM,-0.4,-7.6,72,30.47,4.0,NNW,20.7,28.8,N/A,,Haze,340,2014-02-05 14:55:00
9:10 AM,1.4,-9.4,61,30.48,4.0,North,17.3,29.9,N/A,,Haze,350,2014-02-05 15:10:00
9:35 AM,1.4,-7.6,66,30.49,8.0,NNW,18.4,28.8,N/A,,Scattered Clouds,340,2014-02-05 15:35:00
9:55 AM,1.4,-9.4,61,30.49,7.0,NNW,19.6,27.6,N/A,Snow,Light Snow,340,2014-02-05 15:55:00
10:15 AM,1.4,-7.6,66,30.50,8.0,NNW,18.4,27.6,N/A,,Mostly Cloudy,340,2014-02-05 16:15:00
10:35 AM,3.2,-7.6,61,30.50,9.0,NNW,19.6,26.5,N/A,,Overcast,330,2014-02-05 16:35:00
10:55 AM,3.2,-7.6,61,30.50,10.0,North,16.1,25.3,N/A,,Overcast,350,2014-02-05 16:55:00
11:10 AM,3.2,-7.6,61,30.50,9.0,NNW,20.7,26.5,N/A,,Overcast,340,2014-02-05 17:10:00
11:35 AM,3.2,-7.6,61,30.50,8.0,NNW,20.7,27.6,N/A,,Overcast,340,2014-02-05 17:35:00
11:55 AM,3.2,-7.6,61,30.50,10.0,NNW,19.6,26.5,N/A,,Overcast,340,2014-02-05 17:55:00
12:15 PM,3.2,-7.6,61,30.49,10.0,NNW,17.3,26.5,N/A,,Overcast,340,2014-02-05 18:15:00
12:35 PM,3.2,-7.6,61,30.49,10.0,NNW,23.0,-,N/A,,Overcast,330,2014-02-05 18:35:00
12:55 PM,5.0,-5.8,61,30.49,7.0,NNW,20.7,27.6,N/A,,Overcast,330,2014-02-05 18:55:00
1:15 PM,5.0,-4.0,66,30.49,4.0,NNW,21.9,-,N/A,Snow,Light Snow,330,2014-02-05 19:15:00
1:30 PM,5.0,-5.8,61,30.49,7.0,NNW,20.7,28.8,N/A,,Mostly Cloudy,330,2014-02-05 19:30:00
1:55 PM,5.0,-4.0,66,30.49,3.0,NNW,19.6,27.6,N/A,Snow,Light Snow,330,2014-02-05 19:55:00
2:15 PM,5.0,-5.8,61,30.47,8.0,NNW,18.4,28.8,N/A,,Mostly Cloudy,340,2014-02-05 20:15:00
2:35 PM,5.0,-5.8,61,30.48,6.0,NNW,19.6,26.5,N/A,,Haze,330,2014-02-05 20:35:00
2:55 PM,5.0,-4.0,66,30.49,3.0,NNW,20.7,-,N/A,Snow,Light Snow,330,2014-02-05 20:55:00
3:15 PM,5.0,-4.0,66,30.49,7.0,NW,21.9,-,N/A,,Mostly Cloudy,320,2014-02-05 21:15:00
3:35 PM,5.0,-5.8,61,30.50,7.0,NW,21.9,-,N/A,,Mostly Cloudy,320,2014-02-05 21:35:00
3:55 PM,5.0,-5.8,61,30.51,9.0,NNW,19.6,-,N/A,,Scattered Clouds,330,2014-02-05 21:55:00
4:15 PM,3.2,-4.0,72,30.51,9.0,NW,21.9,-,N/A,,Mostly Cloudy,320,2014-02-05 22:15:00
4:35 PM,3.2,-5.8,66,30.51,6.0,NNW,19.6,-,N/A,,Haze,330,2014-02-05 22:35:00
4:55 PM,3.2,-7.6,61,30.52,10.0,NW,19.6,-,N/A,,Mostly Cloudy,320,2014-02-05 22:55:00
5:15 PM,3.2,-5.8,66,30.52,9.0,NNW,16.1,23.0,N/A,,Scattered Clouds,330,2014-02-05 23:15:00
5:35 PM,1.4,-7.6,66,30.52,10.0,NW,13.8,-,N/A,,Scattered Clouds,320,2014-02-05 23:35:00
5:55 PM,1.4,-5.8,72,30.52,10.0,NW,13.8,-,N/A,,Partly Cloudy,320,2014-02-05 23:55:00
6:15 PM,-0.4,-7.6,72,30.53,10.0,NW,10.4,-,N/A,,Clear,310,2014-02-06 00:15:00
6:35 PM,-0.4,-9.4,66,30.54,10.0,NW,8.1,-,N/A,,Scattered Clouds,310,2014-02-06 00:35:00
6:55 PM,-2.2,-9.4,71,30.54,10.0,NW,10.4,-,N/A,,Partly Cloudy,310,2014-02-06 00:55:00
7:15 PM,-2.2,-9.4,71,30.54,10.0,NW,12.7,-,N/A,,Clear,320,2014-02-06 01:15:00
7:35 PM,-2.2,-11.2,66,30.54,10.0,NW,11.5,-,N/A,,Clear,310,2014-02-06 01:35:00
7:55 PM,-2.2,-11.2,66,30.54,10.0,NW,10.4,-,N/A,,Clear,310,2014-02-06 01:55:00
8:15 PM,-2.2,-11.2,66,30.54,10.0,WNW,9.2,-,N/A,,Clear,300,2014-02-06 02:15:00
8:35 PM,-4.0,-11.2,71,30.54,10.0,NW,10.4,-,N/A,,Clear,310,2014-02-06 02:35:00
8:55 PM,-4.0,-13.0,65,30.53,10.0,WNW,6.9,-,N/A,,Clear,300,2014-02-06 02:55:00
9:15 PM,-5.8,-13.0,71,30.53,10.0,WNW,8.1,-,N/A,,Clear,300,2014-02-06 03:15:00
9:35 PM,-5.8,-13.0,71,30.53,10.0,WNW,8.1,-,N/A,,Mostly Cloudy,300,2014-02-06 03:35:00
9:55 PM,-5.8,-13.0,71,30.53,10.0,WNW,9.2,-,N/A,,Mostly Cloudy,290,2014-02-06 03:55:00
10:10 PM,-5.8,-13.0,71,30.53,10.0,WNW,10.4,-,N/A,,Mostly Cloudy,290,2014-02-06 04:10:00
10:35 PM,-5.8,-13.0,71,30.53,10.0,West,10.4,-,N/A,,Overcast,280,2014-02-06 04:35:00
10:55 PM,-5.8,-13.0,71,30.53,10.0,WNW,11.5,-,N/A,,Overcast,290,2014-02-06 04:55:00
11:15 PM,-5.8,-14.8,65,30.53,10.0,WNW,11.5,-,N/A,,Overcast,290,2014-02-06 05:15:00
11:35 PM,-5.8,-13.0,71,30.52,10.0,WNW,11.5,-,N/A,,Scattered Clouds,290,2014-02-06 05:35:00
11:55 PM,-7.6,-14.8,71,30.52,10.0,WNW,10.4,-,N/A,,Clear,290,2014-02-06 05:55:00